This is the latest recevied weather packets stored in our database for station/object VK3VJP-13. If no packets are shown the sender has not sent any weather packets the latest 10 day(s).
| Time | Temp. | Humidity | Pressure | Rain* | Wind** | Luminosity | Snow |
|---|---|---|---|---|---|---|---|
| 1778138279 | 7.22° C | 85% | 1023 hPa | 0 mm | - | - | - |
| 1778137979 | 7.22° C | 85% | 1022.8 hPa | 0 mm | - | - | - |
| 1778137679 | 7.22° C | 84% | 1022.9 hPa | 0 mm | - | - | - |
| 1778137379 | 7.78° C | 85% | 1022.8 hPa | 0 mm | - | - | - |
| 1778137079 | 7.78° C | 84% | 1022.9 hPa | 0 mm | - | - | - |
| 1778136779 | 7.78° C | 83% | 1022.9 hPa | 0 mm | - | - | - |
| 1778136479 | 7.78° C | 83% | 1022.8 hPa | 0 mm | - | - | - |
| 1778136179 | 7.78° C | 84% | 1022.8 hPa | 0 mm | - | - | - |
| 1778135879 | 7.22° C | 83% | 1022.9 hPa | 0 mm | - | - | - |
| 1778135579 | 7.22° C | 83% | 1022.9 hPa | 0 mm | - | - | - |
| 1778135279 | 7.22° C | 83% | 1023 hPa | 0 mm | - | - | - |
| 1778134979 | 7.78° C | 83% | 1023.1 hPa | 0 mm | - | - | - |
| 1778134679 | 7.78° C | 83% | 1023 hPa | 0 mm | - | - | - |
| 1778134379 | 7.78° C | 82% | 1023.3 hPa | 0 mm | - | - | - |
| 1778134079 | 8.33° C | 81% | 1023.2 hPa | 0 mm | - | - | - |
| 1778133779 | 8.33° C | 79% | 1022.9 hPa | 0 mm | - | - | - |
| 1778133179 | 8.33° C | 78% | 1022.8 hPa | 0 mm | - | - | - |
| 1778132879 | 8.33° C | 78% | 1022.8 hPa | 0 mm | - | - | - |
| 1778132579 | 8.33° C | 79% | 1022.9 hPa | 0 mm | - | - | - |
| 1778132279 | 8.33° C | 80% | 1023 hPa | 0 mm | - | - | - |
| 1778131979 | 8.33° C | 82% | 1022.9 hPa | 0 mm | - | - | - |
| 1778131679 | 8.33° C | 82% | 1022.9 hPa | 0 mm | - | - | - |
| 1778131379 | 8.33° C | 79% | 1022.9 hPa | 0 mm | - | - | - |
| 1778131079 | 8.89° C | 78% | 1022.9 hPa | 0 mm | - | - | - |
| 1778130779 | 8.89° C | 75% | 1022.9 hPa | 0 mm | - | - | - |
* Rain latest hour (hover to see other rain measurements)
** Current wind speed in m/s (hover to see current wind gust speed)